Regional Weather Roundup
Issued by NWS Charleston, SC

Current Version | Previous Version | Graphics & Text | Print | Product List | Glossary On
Versions: 1 2 3 4 5 6 7 8 9 10 11 12 13 14 15 16 17 18 19 20 21 22 23 24 25 26 27 28 29 30 31 32 33 34 35 36 37 38 39 40 41 42 43 44 45 46 47 48 49 50
000
ASUS42 KCHS 201425
RWRCHS

REGIONAL WEATHER ROUNDUP
NATIONAL WEATHER SERVICE CHARLESTON SC
900 AM EST SAT DEC 20 2014

NOTE: "FAIR" INDICATES FEW OR NO CLOUDS BELOW 12,000 FEET WITH NO
SIGNIFICANT WEATHER AND/OR OBSTRUCTIONS TO VISIBILITY.

NOT ALL STATIONS ARE QUALITY CONTROLLED BY THE NATIONAL
WEATHER SERVICE. USE DATA WITH CAUTION...ESPECIALLY
DEWPOINT OBSERVATIONS.

SCZ027-030-031-034>040-042>050-201500-
...SOUTHEAST SOUTH CAROLINA...

CITY           SKY/WX    TMP DP  RH WIND       PRES   REMARKS
N CHARLESTON   RAIN      52  48  87 NE8       30.21R FOG
WATERFRONT PRK   N/A     54 N/A N/A NE10        N/A
MOUNT PLEASANT LGT RAIN  52  52 100 N5        30.19R
PINOPOLIS        N/A     50  48  93 VRB3      30.12R
MONCKS CORNER  LGT RAIN  50  48  93 CALM      30.22R
SUMMERVILLE    DRIZZLE   48  48 100 N5        30.23
BEAUFORT MCAS  LGT RAIN  51  49  92 N8        30.19R FOG
BEAUFORT ARPT  LGT RAIN  52  52 100 N8        30.18R
HILTON HEAD IS LGT RAIN  52  50  93 N6        30.18R
WALTERBORO     LGT RAIN  50 N/A N/A N5        30.22R
ALLENDALE      LGT RAIN  48  48 100 CALM      30.20S

...SOUTHERN MIDLANDS AND PEE DEE...

CITY           SKY/WX    TMP DP  RH WIND       PRES   REMARKS
GEORGETOWN     NOT AVBL
KINGSTREE      NOT AVBL
ORANGEBURG     LGT RAIN  48  45  89 NE3       30.22R FOG
BARNWELL         N/A     48  46  93 NE3       30.22R
AIKEN          LGT RAIN  46  46 100 E3        30.23S
MANNING        NOT AVBL
COLUMBIA       LGT RAIN  47  43  86 E5        30.22R
SUMTER         LGT RAIN  44  42  92 NE8       30.22R
FLORENCE       CLOUDY    44  40  85 NE6       30.23R
MYRTLE BEACH   CLOUDY    48  43  81 NE10      30.23R
N MYRTLE BEACH LGT RAIN  47  43  86 NE9       30.22R

$$

GAZ063-065-086>088-099>101-113>116-118-119-134>141-150-201500-
...SOUTHEAST GEORGIA...

CITY           SKY/WX    TMP DP  RH WIND       PRES   REMARKS
SAVANNAH ARPT  LGT RAIN  51  48  89 N3        30.18R
HUNTER AAF     PTSUNNY   52  52 100 N5        30.15R
FORT STEWART   LGT RAIN  52  50  93 NW3       30.17R
STATESBORO     RAIN      49  49 100 CALM      30.20R
SYLVANIA       LGT RAIN  48  48 100 NE3       30.22R
CLAXTON        RAIN      50  50 100 CALM      30.20R

...CSRA...CENTRAL AND FAR SOUTHEAST GEORGIA...

CITY           SKY/WX    TMP DP  RH WIND       PRES   REMARKS
THOMSON        CLOUDY    50  50 100 CALM      30.24R
AUGUSTA-BUSH   CLOUDY    48  46  93 CALM      30.21R FOG
AUGUSTA-DANIEL CLOUDY    49  48  97 SE6       30.20R FOG
SWAINSBORO     RAIN     N/A N/A N/A NE3       30.21R
VIDALIA        CLOUDY    50  50 100 CALM      30.21R
EASTMAN        LGT RAIN  49  49 100 CALM      30.23R
HAZLEHURST     CLOUDY    51  51 100 CALM      30.19R
ALMA           LGT RAIN  51  49  92 N6        30.17R FOG
WAYCROSS       LGT RAIN  55  53  92 CALM      30.17R
JESUP          LGT RAIN  55  52  88 CALM      30.18R
BAXLEY         LGT RAIN  52  50  93 NW3       30.19R
BRUNSWICK      CLOUDY    55  48  76 CALM      30.17R
SAINT SIMONS   CLOUDY    56  51  84 N5        30.15R

$$

SCZ027-028-034-036>038-045-046-048>050-GAZ119-141-201500-
...LAKE AND SUPPLEMENTAL COASTAL OBSERVATIONS...

STATION/POSITION TIME  TEMP    WIND        PRES    WAVE   SWELL
                       AIR SEA DIR/SP/G            HT/PER HT/PER/DIR
                 (UTC) (F)     (DEG/KT/KT) (MB)    (FT/S) (FT/S/D)
UPR LAKE MARION  NOT AVBL
WINYAH BAY       1300   53      50/ 11     1021.0S
LAKE MURRAY      1400   44      40/  2/  4 1022.4F
ACE BASIN NERRS  1300   49      50/  2     1020.0F
FORT PULASKI     1400   53 57   10/  5/  7 1021.7S
SAPELO ISLAND    1300   54      20/  2     1020.0S

$$

ANZ835-935-AMZ111-154-330-350-352-354-370-450-454-472-201500-
...C-MAN AND BUOY OBSERVATIONS...

STATION/POSITION TIME  TEMP    WIND        PRES    WAVE   SWELL
                       AIR SEA DIR/SP/G            HT/PER HT/PER/DIR
                 (UTC) (F)     (DEG/KT/KT) (MB)    (FT/S) (FT/S/D)
BUOY 41004       1400   63 69   60/ 17/ 19 1020.7R   4/ 5   2/11
BUOY 41008       1400   58 57   30/  8/ 10 1020.7R   2/ 3   2/110/10
FOLLY BEACH CMAN 1400   54      50/ 13/ 15 1022.0R
CAPERS NEARSHORE 1300   55      60/ 16/ 19   N/A
FRIPP NEARSHORE  NOT AVBL


STATION/POSITION TIME  TEMP    WIND        PRES    WAVE   SWELL
                       AIR SEA DIR/SP/G            HT/PER HT/PER/DIR
                 (UTC) (F)     (DEG/KT/KT) (MB)    (FT/S) (FT/S/D)
5E ST. MARYS GA  1400      61                N/A     2/ 4
FRYING PAN BUOY  1400   56 68   60/ 16/ 17 1022.7R   3/ 4   2/ 90/ 8
BUOY 41025       1400   48                 1025.3R   3/ 7
CAPE LOOKOUT NC  1400   46      20/ 11/ 14 1024.5R
BUOY 41002       1314   66 72   80/ 12/ 16 1022.0R   3/10   2/ 80/10
BUOY 41010       1400   72 76  190/  4/  8 1020.6R   3/11   3/ 80/11
ST AUGUSTINE FL  1400   64     360/  9/ 10 1020.8R


$$



USA.gov is the U.S. government's official web portal to all federal, state and local government web resources and services.